Location: Norton
(51.3000°N, 0.8167°E)
Time: 03:09:07
(UTC+00:00)

Cosmos 1844 - Pass Details

Date: 03 March 2021
Orbit: 822 x 868 km, 70.9° (Epoch: 13 April)

Event Time Altitude Azimuth Distance (km) Brightness Sun altitude
Rises 18:31:59 0° 330° (NNW) 3,464 7.3 -8.7°
Reaches altitude 10° 18:34:32 10° 335° (NNW) 2,520 6.5 -9.1°
Maximum altitude 18:40:15 57° 54° (NE) 1,007 3.9 -10.0°
Drops below altitude 10° 18:45:53 10° 133° (SE) 2,483 5.7 -10.9°
Enters shadow 18:47:05 - 136° (SE) 2,932 6.1 -11.1°
